This is the latest recevied weather packets stored in our database for station/object SP2WPY-13. If no packets are shown the sender has not sent any weather packets the latest 1 day(s).
| Time | Temp. | Humidity | Pressure | Rain* | Wind** | Luminosity | Snow |
|---|---|---|---|---|---|---|---|
| 1778004388 | 8.89° C | 100% | 1012.8 hPa | - | 0.89 m/s, 80° | - | - |
| 1778004068 | 8.89° C | 100% | 1012.8 hPa | - | 0.45 m/s, 124° | - | - |
| 1778003793 | 8.89° C | 100% | 1012.8 hPa | - | 0.45 m/s, 32° | - | - |
| 1778003474 | 8.89° C | 100% | 1012.8 hPa | - | 0.89 m/s, 70° | - | - |
| 1778003199 | 8.89° C | 100% | 1012.7 hPa | - | 1.79 m/s, 19° | - | - |
| 1778002880 | 9.44° C | 100% | 1012.7 hPa | - | 1.79 m/s, 13° | - | - |
| 1778002561 | 9.44° C | 100% | 1012.7 hPa | - | 0.89 m/s, 56° | - | - |
| 1778002287 | 9.44° C | 100% | 1012.7 hPa | - | 0.89 m/s, 16° | - | - |
| 1778001968 | 10° C | 100% | 1012.6 hPa | - | 1.34 m/s, 49° | - | - |
| 1778001693 | 8.89° C | 100% | 1012.7 hPa | - | 0.89 m/s, 36° | - | - |
| 1778001374 | 8.89° C | 100% | 1012.8 hPa | - | 1.34 m/s, 39° | - | - |
| 1778001099 | 8.89° C | 100% | 1012.8 hPa | - | 1.34 m/s, 57° | - | - |
| 1778000780 | 8.89° C | 100% | 1012.9 hPa | - | 1.34 m/s, 39° | - | - |
| 1778000461 | 8.89° C | 100% | 1012.8 hPa | - | 1.34 m/s, 17° | - | - |
| 1778000187 | 8.89° C | 100% | 1012.8 hPa | - | 1.34 m/s, 36° | - | - |
| 1777999867 | 8.89° C | 100% | 1012.9 hPa | - | 0.89 m/s, 70° | - | - |
| 1777999592 | 8.33° C | 100% | 1012.8 hPa | - | 1.34 m/s, 56° | - | - |
| 1777999272 | 8.89° C | 100% | 1012.7 hPa | - | 2.68 m/s, 39° | - | - |
| 1777999000 | 8.89° C | 100% | 1012.7 hPa | - | 1.34 m/s, 78° | - | - |
| 1777998679 | 8.89° C | 100% | 1012.7 hPa | - | 1.34 m/s, 54° | - | - |
| 1777998411 | 8.89° C | 100% | 1012.7 hPa | - | 1.34 m/s, 98° | - | - |
| 1777998086 | 8.89° C | 100% | 1012.8 hPa | - | 1.34 m/s, 78° | - | - |
| 1777997767 | 8.89° C | 100% | 1012.9 hPa | - | 0.89 m/s, 54° | - | - |
| 1777997493 | 8.89° C | 100% | 1013 hPa | - | 0.45 m/s, 132° | - | - |
| 1777997172 | 8.89° C | 100% | 1013.1 hPa | - | 1.34 m/s, 117° | - | - |
* Rain since midnight (hover to see other rain measurements)
** Current wind speed in m/s (hover to see current wind gust speed)